STARLINK-4597 (53640 NORAD) Tracking and Keplerian Element Data

This shows tracking and keplerian element data for the satellite.

Feedback or suggestion? Click here.




ElementValue
Catalog53640
NameSTARLINK-4597
Epoch Orbit130
Epoch Day324.91667824
Epoch Year2022
RAAN232.6239
Inclination53.2176
Eccentricity0.0001185
Argument of Perigee75.5304
Mean Anonmoly310.9373
Mean Motion15.23934592
Decay Rate-0.01150991
L11 53640U 22104BE 22324.91667824 -.01150991 00000+0 -50946-1 0 9995
L22 53640 53.2176 232.6239 0001185 75.5304 310.9373 15.23934592 1303



Live tracking and technical data element details for STARLINK-4597 (NORAD 53640). STARLINK-4597 can be tracked NOW for your location showing map with azimuth and elevation plus other details from your city location.







IsCatalogInMostPopularTable: catalog: 53640, numindb: 6
Update: records affected: 1



GetName: 53640 STARLINK-4597

Hit Count: updated at: Thu, 08 Dec 2022 19:06:48 GMT